Location: Berlin
(52.5200°N, 13.4050°E)
Time: 17:30:53
(UTC+02:00)

ISS - Visible Passes

Search period start: 23 June 2025 00:00
Search period end: 03 July 2025 00:00
Orbit: 415 x 417 km, 51.6° (Epoch: 23 June)

Date Brightness Start Highest point End Pass type
(mag) Time Alt. Az. Time Alt. Az. Time Alt. Az.
25 Jun -1.9 03:45:43 10° SSW 03:48:11 19° SE 03:50:40 10° E visible
26 Jun -1.5 02:58:19 11° SSE 02:59:47 13° SE 03:01:31 10° ESE visible
27 Jun -2.8 03:44:18 10° SW 03:47:23 34° SSE 03:50:28 10° E visible
28 Jun -2.4 02:57:07 16° SSW 02:58:52 25° SSE 03:01:41 10° E visible
29 Jun -2.1 02:10:00 18° SSE 02:10:22 18° SE 02:12:45 10° E visible
29 Jun -3.5 03:43:20 10° WSW 03:46:38 55° SSE 03:49:55 10° E visible
30 Jun -1.4 01:22:47 12° ESE 01:22:47 12° ESE 01:23:26 10° ESE visible
30 Jun -3.3 02:55:38 16° SW 02:58:00 43° SSE 03:01:13 10° E visible
01 Jul -2.9 02:08:22 26° S 02:09:24 32° SSE 02:12:26 10° E visible
01 Jul -3.8 03:42:32 10° WSW 03:45:53 73° S 03:49:14 10° E visible
02 Jul -2.5 01:21:01 23° SE 01:21:01 23° SE 01:23:35 10° E visible
02 Jul -3.8 02:53:51 10° WSW 02:57:10 64° SSE 03:00:31 10° E visible
